CSA3CZ LKPR-LOWW

Flight info

Callsign CSA3CZ
Flight time 0h 48m
Altitude 17000
Route VOZ DCT LANUX LANUX7W
Aircraft A320/M-SDE3FGHIRWY/LB1

Departure

Time 2026-05-06 19:10
Airport Václav Havel Airport Prague (LKPR)

Arrival

Time 2026-05-06 19:58
Airport Vienna International Airport (LOWW)
Time Latitude Longitude Altitude Speed Heading
2026-05-06 18:44 50.10464 14.26536 1171 ft 0 kts 34°
2026-05-06 18:45 50.10464 14.26535 1171 ft 0 kts 34°
2026-05-06 18:53 50.10462 14.26533 1174 ft 1 kts 34°
2026-05-06 18:54 50.10451 14.26522 1170 ft 2 kts 34°
2026-05-06 18:54 50.10438 14.26509 1171 ft 2 kts 24°
2026-05-06 18:54 50.10426 14.26503 1171 ft 2 kts 330°
2026-05-06 18:54 50.10418 14.26514 1170 ft 2 kts 306°
2026-05-06 18:55 50.10412 14.26526 1171 ft 0 kts 305°
2026-05-06 18:59 50.10412 14.26525 1171 ft 1 kts 305°
2026-05-06 18:59 50.10430 14.26483 1169 ft 9 kts 303°
2026-05-06 18:59 50.10479 14.26375 1174 ft 16 kts 306°
2026-05-06 18:59 50.10530 14.26239 1171 ft 10 kts 287°
2026-05-06 19:00 50.10532 14.26128 1170 ft 12 kts 266°
2026-05-06 19:00 50.10519 14.25967 1172 ft 16 kts 281°
2026-05-06 19:00 50.10565 14.25832 1173 ft 9 kts 303°
2026-05-06 19:00 50.10586 14.25777 1174 ft 9 kts 300°
2026-05-06 19:01 50.10640 14.25623 1171 ft 13 kts 289°
2026-05-06 19:01 50.10607 14.25508 1170 ft 11 kts 237°
2026-05-06 19:01 50.10591 14.25434 1169 ft 0 kts 259°
2026-05-06 19:02 50.10586 14.25384 1170 ft 0 kts 260°
2026-05-06 19:04 50.10585 14.25371 1171 ft 4 kts 260°
2026-05-06 19:04 50.10578 14.25307 1169 ft 6 kts 260°
2026-05-06 19:04 50.10574 14.25279 1167 ft 0 kts 258°
2026-05-06 19:07 50.10574 14.25280 1167 ft 0 kts 258°
2026-05-06 19:09 50.10574 14.25279 1169 ft 0 kts 258°
2026-05-06 19:09 50.10569 14.25242 1168 ft 7 kts 258°
2026-05-06 19:09 50.10547 14.25136 1166 ft 12 kts 246°
2026-05-06 19:09 50.10517 14.25128 1168 ft 2 kts 148°
2026-05-06 19:10 50.10494 14.25172 1168 ft 26 kts 127°
2026-05-06 19:10 50.10185 14.25809 1188 ft 118 kts 127°
2026-05-06 19:10 50.09564 14.27125 1439 ft 167 kts 125°
2026-05-06 19:10 50.08843 14.28627 2359 ft 177 kts 125°
2026-05-06 19:11 50.08093 14.30172 3292 ft 180 kts 127°
2026-05-06 19:11 50.07577 14.31231 3615 ft 191 kts 127°
2026-05-06 19:11 50.06418 14.33612 4060 ft 223 kts 128°
2026-05-06 19:11 50.05430 14.35642 4505 ft 247 kts 128°
2026-05-06 19:12 50.04722 14.37096 4834 ft 262 kts 128°
2026-05-06 19:12 50.03597 14.39403 5655 ft 270 kts 129°
2026-05-06 19:12 50.02455 14.41749 6574 ft 274 kts 130°
2026-05-06 19:12 50.01294 14.44127 7459 ft 278 kts 130°
2026-05-06 19:13 50.00114 14.46547 8353 ft 283 kts 131°
2026-05-06 19:13 49.98376 14.49596 9481 ft 286 kts 144°
2026-05-06 19:13 49.97284 14.50814 10022 ft 286 kts 154°
2026-05-06 19:13 49.95491 14.52331 10473 ft 305 kts 156°
2026-05-06 19:14 49.93546 14.53939 10753 ft 328 kts 155°
2026-05-06 19:14 49.91485 14.55642 10967 ft 351 kts 155°
2026-05-06 19:14 49.89229 14.57514 11123 ft 374 kts 155°
2026-05-06 19:14 49.86896 14.59465 11540 ft 386 kts 154°
2026-05-06 19:15 49.84518 14.61466 12179 ft 391 kts 154°
2026-05-06 19:15 49.82151 14.63461 12854 ft 394 kts 154°
2026-05-06 19:15 49.79725 14.65499 13533 ft 398 kts 154°
2026-05-06 19:15 49.77277 14.67548 14151 ft 401 kts 155°
2026-05-06 19:16 49.74810 14.69605 14758 ft 404 kts 155°
2026-05-06 19:16 49.72327 14.71671 15369 ft 407 kts 155°
2026-05-06 19:16 49.69823 14.73746 15941 ft 410 kts 155°
2026-05-06 19:16 49.67306 14.75825 16492 ft 413 kts 155°
2026-05-06 19:17 49.64765 14.77922 16703 ft 414 kts 155°
2026-05-06 19:17 49.62204 14.80041 16745 ft 420 kts 155°
2026-05-06 19:17 49.59623 14.82181 16746 ft 422 kts 155°
2026-05-06 19:17 49.57037 14.84321 16741 ft 422 kts 155°
2026-05-06 19:18 49.54450 14.86461 16741 ft 423 kts 155°
2026-05-06 19:18 49.51968 14.88932 16742 ft 427 kts 147°
2026-05-06 19:18 49.49609 14.91702 16738 ft 427 kts 147°
2026-05-06 19:18 49.47244 14.94470 16742 ft 427 kts 147°
2026-05-06 19:19 49.44877 14.97229 16745 ft 427 kts 147°
2026-05-06 19:19 49.42509 14.99980 16737 ft 427 kts 147°
2026-05-06 19:19 49.40140 15.02729 16733 ft 427 kts 147°
2026-05-06 19:19 49.37766 15.05481 16733 ft 427 kts 147°
2026-05-06 19:20 49.35397 15.08229 16731 ft 427 kts 147°
2026-05-06 19:20 49.33057 15.10944 16728 ft 427 kts 147°
2026-05-06 19:20 49.30690 15.13687 16734 ft 427 kts 147°
2026-05-06 19:20 49.28317 15.16428 16734 ft 427 kts 147°
2026-05-06 19:21 49.25944 15.19167 16732 ft 427 kts 147°
2026-05-06 19:21 49.23575 15.21903 16729 ft 427 kts 147°
2026-05-06 19:21 49.21202 15.24637 16615 ft 426 kts 147°
2026-05-06 19:21 49.18833 15.27359 16452 ft 425 kts 147°
2026-05-06 19:22 49.16469 15.30072 16293 ft 424 kts 147°
2026-05-06 19:22 49.14109 15.32773 16041 ft 423 kts 147°
2026-05-06 19:22 49.11762 15.35458 15780 ft 421 kts 147°
2026-05-06 19:22 49.09426 15.38129 15528 ft 420 kts 147°
2026-05-06 19:23 49.07087 15.40803 15276 ft 419 kts 146°
2026-05-06 19:23 49.04759 15.43460 15028 ft 417 kts 146°
2026-05-06 19:23 49.02438 15.46105 14770 ft 416 kts 146°
2026-05-06 19:23 49.00135 15.48729 14327 ft 410 kts 146°
2026-05-06 19:24 48.97856 15.51326 13641 ft 407 kts 146°
2026-05-06 19:24 48.95599 15.53892 12981 ft 404 kts 146°
2026-05-06 19:24 48.93343 15.56446 12747 ft 404 kts 146°
2026-05-06 19:24 48.91093 15.59005 12730 ft 404 kts 146°
2026-05-06 19:25 48.88839 15.61565 12733 ft 405 kts 146°
2026-05-06 19:25 48.86596 15.64150 12732 ft 405 kts 144°
2026-05-06 19:25 48.84379 15.66787 12733 ft 405 kts 144°
2026-05-06 19:25 48.82176 15.69453 12733 ft 405 kts 144°
2026-05-06 19:26 48.79978 15.72123 12731 ft 405 kts 144°
2026-05-06 19:26 48.77772 15.74799 12734 ft 405 kts 144°
2026-05-06 19:26 48.75568 15.77454 12729 ft 404 kts 144°
2026-05-06 19:26 48.73359 15.80093 12730 ft 404 kts 144°
2026-05-06 19:27 48.71149 15.82720 12727 ft 404 kts 144°
2026-05-06 19:27 48.68940 15.85343 12732 ft 404 kts 144°
2026-05-06 19:27 48.66730 15.87967 12727 ft 404 kts 144°
2026-05-06 19:27 48.64518 15.90593 12729 ft 404 kts 144°
2026-05-06 19:28 48.62302 15.93221 12732 ft 404 kts 144°
2026-05-06 19:28 48.60183 15.96028 12729 ft 408 kts 134°
2026-05-06 19:28 48.58679 15.99669 12734 ft 414 kts 115°
2026-05-06 19:28 48.58002 16.03913 12732 ft 419 kts 96°
2026-05-06 19:29 48.58140 16.08318 12735 ft 423 kts 86°
2026-05-06 19:29 48.58472 16.12731 12738 ft 422 kts 85°
2026-05-06 19:29 48.58812 16.17145 12740 ft 423 kts 85°
2026-05-06 19:29 48.59156 16.21544 12739 ft 423 kts 85°
2026-05-06 19:30 48.59503 16.25972 12741 ft 423 kts 85°
2026-05-06 19:30 48.59848 16.30378 12743 ft 423 kts 85°
2026-05-06 19:30 48.60199 16.34794 12744 ft 424 kts 84°
2026-05-06 19:30 48.60982 16.39095 12744 ft 428 kts 67°
2026-05-06 19:31 48.62611 16.42873 12744 ft 431 kts 48°
2026-05-06 19:31 48.64933 16.45734 12748 ft 433 kts 30°
2026-05-06 19:31 48.70688 16.47693 12752 ft 428 kts 353°
2026-05-06 19:32 48.73549 16.46609 12751 ft 423 kts 334°
2026-05-06 19:32 48.76013 16.44265 12751 ft 416 kts 315°
2026-05-06 19:32 48.77834 16.40922 12746 ft 410 kts 297°
2026-05-06 19:32 48.78839 16.36926 12748 ft 403 kts 278°
2026-05-06 19:33 48.78999 16.32719 12744 ft 399 kts 266°
2026-05-06 19:33 48.78921 16.28566 12742 ft 399 kts 265°
2026-05-06 19:33 48.78830 16.24351 12744 ft 399 kts 265°
2026-05-06 19:33 48.78736 16.20138 12739 ft 400 kts 265°
2026-05-06 19:34 48.78641 16.15929 12739 ft 400 kts 265°
2026-05-06 19:34 48.78543 16.11716 12741 ft 400 kts 265°
2026-05-06 19:34 48.78444 16.07500 12739 ft 400 kts 265°
2026-05-06 19:34 48.78267 16.03304 12733 ft 398 kts 258°
2026-05-06 19:35 48.77437 15.99338 12737 ft 393 kts 242°
2026-05-06 19:35 48.75895 15.95945 12738 ft 391 kts 226°
2026-05-06 19:35 48.73780 15.93395 12734 ft 391 kts 210°
2026-05-06 19:35 48.71250 15.91894 12736 ft 392 kts 193°
2026-05-06 19:36 48.68536 15.91586 12734 ft 395 kts 177°
2026-05-06 19:36 48.65856 15.92507 12735 ft 399 kts 160°
2026-05-06 19:36 48.63420 15.94551 12738 ft 402 kts 149°
2026-05-06 19:36 48.61089 15.96887 12554 ft 399 kts 148°
2026-05-06 19:37 48.58831 15.99177 12297 ft 383 kts 148°
2026-05-06 19:37 48.56666 16.01380 12042 ft 366 kts 149°
2026-05-06 19:37 48.54636 16.03441 11782 ft 337 kts 149°
2026-05-06 19:37 48.53374 16.04717 11609 ft 321 kts 149°
2026-05-06 19:38 48.51005 16.07107 11286 ft 293 kts 150°
2026-05-06 19:38 48.49357 16.08763 11038 ft 275 kts 150°
2026-05-06 19:38 48.47759 16.10170 10793 ft 258 kts 157°
2026-05-06 19:38 48.46146 16.11267 10546 ft 252 kts 160°
2026-05-06 19:39 48.44541 16.12310 10310 ft 250 kts 160°
2026-05-06 19:39 48.42945 16.13358 10068 ft 250 kts 160°
2026-05-06 19:39 48.41357 16.14405 9869 ft 248 kts 160°
2026-05-06 19:39 48.39773 16.15450 9755 ft 249 kts 160°
2026-05-06 19:40 48.38187 16.16497 9628 ft 249 kts 160°
2026-05-06 19:40 48.36603 16.17542 9503 ft 248 kts 160°
2026-05-06 19:40 48.35020 16.18582 9371 ft 248 kts 160°
2026-05-06 19:40 48.33489 16.19797 9240 ft 251 kts 146°
2026-05-06 19:41 48.32266 16.21688 9114 ft 256 kts 127°
2026-05-06 19:41 48.31498 16.24127 8995 ft 262 kts 108°
2026-05-06 19:41 48.31300 16.26855 8857 ft 265 kts 88°
2026-05-06 19:41 48.31720 16.29555 8726 ft 268 kts 67°
2026-05-06 19:42 48.32709 16.31877 8602 ft 266 kts 46°
2026-05-06 19:42 48.34125 16.33546 8469 ft 254 kts 26°
2026-05-06 19:42 48.35747 16.34406 8344 ft 244 kts
2026-05-06 19:42 48.37421 16.34480 8215 ft 239 kts 348°
2026-05-06 19:43 48.39001 16.33819 8089 ft 235 kts 334°
2026-05-06 19:43 48.40523 16.32931 7956 ft 235 kts 335°
2026-05-06 19:43 48.42075 16.32073 7837 ft 235 kts 340°
2026-05-06 19:43 48.43630 16.31411 7695 ft 235 kts 340°
2026-05-06 19:44 48.45195 16.30744 7389 ft 234 kts 340°
2026-05-06 19:44 48.46757 16.30084 7080 ft 232 kts 340°
2026-05-06 19:44 48.48307 16.29430 6803 ft 230 kts 340°
2026-05-06 19:44 48.49843 16.28780 6500 ft 229 kts 340°
2026-05-06 19:45 48.51374 16.28135 6211 ft 228 kts 340°
2026-05-06 19:45 48.52891 16.27505 5996 ft 224 kts 340°
2026-05-06 19:45 48.54408 16.26872 5969 ft 227 kts 341°
2026-05-06 19:45 48.55930 16.26228 5968 ft 227 kts 340°
2026-05-06 19:46 48.57464 16.25636 5966 ft 230 kts 351°
2026-05-06 19:46 48.59040 16.26018 5967 ft 235 kts 26°
2026-05-06 19:46 48.60265 16.27618 5836 ft 235 kts 59°
2026-05-06 19:46 48.60748 16.29910 5493 ft 229 kts 94°
2026-05-06 19:47 48.60579 16.32280 5158 ft 226 kts 104°
2026-05-06 19:47 48.60108 16.34476 4972 ft 211 kts 130°
2026-05-06 19:47 48.59110 16.35946 4978 ft 197 kts 148°
2026-05-06 19:47 48.57973 16.37053 4970 ft 193 kts 158°
2026-05-06 19:48 48.56764 16.37929 4973 ft 192 kts 160°
2026-05-06 19:48 48.55557 16.38754 4972 ft 192 kts 160°
2026-05-06 19:48 48.54336 16.39580 4973 ft 193 kts 160°
2026-05-06 19:48 48.53110 16.40407 4974 ft 193 kts 161°
2026-05-06 19:49 48.51885 16.41234 4973 ft 193 kts 161°
2026-05-06 19:49 48.50658 16.42061 4975 ft 194 kts 160°
2026-05-06 19:49 48.49429 16.42892 4975 ft 194 kts 161°
2026-05-06 19:49 48.48187 16.43643 4975 ft 191 kts 170°
2026-05-06 19:50 48.46913 16.43652 4976 ft 182 kts 201°
2026-05-06 19:50 48.45666 16.43271 4971 ft 188 kts 175°
2026-05-06 19:50 48.44414 16.43954 4985 ft 195 kts 163°
2026-05-06 19:50 48.43136 16.44561 4983 ft 192 kts 169°
2026-05-06 19:51 48.41847 16.45100 4985 ft 192 kts 169°
2026-05-06 19:51 48.40563 16.45644 4983 ft 192 kts 169°
2026-05-06 19:51 48.39273 16.46195 4987 ft 193 kts 169°
2026-05-06 19:51 48.37979 16.46748 4986 ft 193 kts 169°
2026-05-06 19:52 48.36690 16.47300 4991 ft 193 kts 169°
2026-05-06 19:52 48.35400 16.47851 4991 ft 192 kts 169°
2026-05-06 19:52 48.34111 16.48402 4949 ft 193 kts 169°
2026-05-06 19:52 48.32820 16.48953 4772 ft 193 kts 169°
2026-05-06 19:53 48.31533 16.49503 4532 ft 192 kts 169°
2026-05-06 19:53 48.30252 16.50049 4291 ft 191 kts 169°
2026-05-06 19:53 48.29408 16.50410 4121 ft 190 kts 170°
2026-05-06 19:53 48.27715 16.51131 3789 ft 188 kts 170°
2026-05-06 19:54 48.26886 16.51484 3638 ft 186 kts 169°
2026-05-06 19:54 48.25655 16.52010 3397 ft 181 kts 169°
2026-05-06 19:54 48.24466 16.52516 3150 ft 175 kts 169°
2026-05-06 19:54 48.23308 16.53009 2924 ft 172 kts 169°
2026-05-06 19:55 48.22162 16.53496 2701 ft 170 kts 169°
2026-05-06 19:55 48.21077 16.53959 2491 ft 152 kts 169°
2026-05-06 19:55 48.20132 16.54363 2302 ft 134 kts 169°
2026-05-06 19:55 48.19262 16.54731 2129 ft 127 kts 169°
2026-05-06 19:56 48.18419 16.55087 1963 ft 125 kts 168°
2026-05-06 19:56 48.17588 16.55439 1796 ft 124 kts 168°
2026-05-06 19:56 48.16753 16.55791 1637 ft 124 kts 169°
2026-05-06 19:56 48.15925 16.56140 1449 ft 123 kts 168°
2026-05-06 19:57 48.15102 16.56499 1304 ft 123 kts 166°
2026-05-06 19:57 48.14279 16.56840 1122 ft 124 kts 165°
2026-05-06 19:57 48.13456 16.57184 961 ft 124 kts 164°
2026-05-06 19:57 48.12625 16.57538 786 ft 125 kts 163°
2026-05-06 19:58 48.11791 16.57895 631 ft 123 kts 163°
2026-05-06 19:58 48.11069 16.58202 614 ft 87 kts 163°
2026-05-06 19:58 48.10602 16.58401 613 ft 59 kts 164°
2026-05-06 19:58 48.10272 16.58451 616 ft 34 kts 192°
2026-05-06 19:59 48.10130 16.58385 610 ft 12 kts 212°
2026-05-06 19:59 48.10093 16.58273 613 ft 12 kts 256°
2026-05-06 19:59 48.10122 16.58185 613 ft 10 kts 338°
2026-05-06 19:59 48.10182 16.58159 618 ft 8 kts 345°
2026-05-06 20:00 48.10235 16.58137 622 ft 2 kts 343°
2026-05-06 20:02 48.10239 16.58135 620 ft 2 kts 343°
2026-05-06 20:02 48.10247 16.58132 618 ft 0 kts 344°
2026-05-06 20:02 48.10248 16.58131 618 ft 1 kts 344°
2026-05-06 20:03 48.10266 16.58124 617 ft 4 kts 344°
2026-05-06 20:03 48.10301 16.58109 610 ft 6 kts 344°
2026-05-06 20:03 48.10327 16.58098 621 ft 4 kts 344°
2026-05-06 20:03 48.10333 16.58095 616 ft 0 kts 344°
2026-05-06 20:07 48.10332 16.58095 616 ft 0 kts 344°